Weather in Yashkinskiy

Russia / Kemerovo Oblast     55°52′24″N   85°24′10″E
temp.,
°C
wind,
m/s
gust,
m/s
humid.,
%
clouds,
%
prec.,
mm/h
press.,
hPa
HPBL,
m
13 may, thu
thu1301:00+12ne1149100 0.0 101411
04:00+10s115658 0.0 101310
07:00+12sse125613 0.0 101368
10:00+17ssw234147 0.0 1013817
13:00+20sw353299 0.0 10122933
16:00+20w452636 0.0 10102912
19:00+18wnw5640100 0.0 1011945
22:00+11nnw597396 0.1 1014456
14 may, fri
fri1401:00+9nnw378272 0.1 1014264
04:00+7nw379499 0.0 1014204
07:00+8nw597412 0.0 1015502
10:00+10nw7868100 0.1 10161346
13:00+11nnw79395 0.1 10181632
16:00+13nnw692795 0.0 10182053
19:00+12nw583053 0.0 10201842
22:00+8wnw224084 0.0 102224
15 may, sat
sat1501:00+7w394578 0.0 1022271
04:00+9sw41051100 0.0 1021499
07:00+10sw6145134 0.0 1020647
10:00+14wsw7125051 0.1 1018791
13:00+19wsw8104669 0.3 10171353
16:00+22wsw71041100 0.1 10151984
19:00+21wsw61149100 0.1 10141020
22:00+14sw4148576 3.0 1014320
16 may, sun
sun1601:00+12wsw369277 3.4 1015119
04:00+11wsw399666 0.0 1015242
07:00+13sw389098 0.0 1015300
10:00+15wsw358299 0.2 1015353
13:00+19w586699 1.7 10131376
16:00+21wnw685682 1.0 10131669
19:00+19nw566555 1.1 10131073
22:00+13ene1190100 0.0 101411
17 may, mon
mon1701:00+13se2592100 0.1 1012116
04:00+14sw31187100 0.4 1011337
07:00+14wnw4118791 0.4 1012507
10:00+19wnw576799 0.0 10121001
13:00+23wnw6951100 0.0 10111621
16:00+27w5113553 0.0 10102965
19:00+23wsw374451 0.0 1008220
22:00+19sw345558 0.0 100755